Reflectivity
-10 -19 -8 -7 -20 -20 -20 -20 -20 -20 -20 -20 -20 -20 -20 -20 -20 -20 -20 -20 -20 -20 -20 -20 -20 -20 -20 -20 -20 -20 -20 -20 -20 -20 -20 -20 -20 -20 -20 -20 -20 -20 -20 -20 -20 -20 -20
-20 -20 -20 -20 -20 -20 -20 -20 -20 -20 -20 -20 -20 -20 -20 -20 -20 -20 -20 -20 -20 -20 -20 -20 -20 -20 -20 -20 -20 -20 -20 -20 -20 -20 -20 -20 -20 -20 -20 -20 -20 -20 -20 -20 -20 -20 -20
-1 -20 -20 -20 -20 -20 -20 -20 -20 -20 -20 -20 -20 -20 -20 -20 -20 -20 -20 -20 -20 -20 -20 -20 -20 -20 -20 -20 -20 -20 -20 -20 -20 -20 -20 -20 -20 -20 -20 -20 -20 -20 -20 -20 -20 -20 -20
-4 -20 -20 -20 -20 -20 -20 -20 -20 -20 -20 -20 -20 -20 -20 -20 -20 -20 -20 -20 -20 -20 -20 -20 -20 -20 -20 -20 -20 -20 -20 -20 -20 -20 -20 -20 -20 -20 -20 -20 -20 -20 -20 -20 -20 -20 -20
-5 -20 -20 -20 -20 -20 -20 -20 -20 -20 -20 -20 -20 -20 -20 -20 -20 -20 -20 -20 -20 -20 -20 -20 -20 -20 -20 -20 -20 -20 -20 -20 -20 -20 -20 -20 -20 -20 -20 -20 -20 -20 -20 -20 -20 -20 -20
-20 -20 -20 -20 -20 -20 -20 -20 -20 -20 -20 -20 -20 -20 -20 -20 -20 -20 -20 -20 -20 -20 -20 -20 -20 -20 -20 -20 -20 -20 -20 -20 -20 -20 -20 -20 -20 -20 -20 -20 -20 -20 -20 -20 -20 -20 -20
-20 -20 -20 -20 -20 -20 -20 -20 -20 -20 -20 -20 -20 -20 -20 -20 -20 -20 -20 -20 -20 -20 -20 -20 -20 -20 -20 -20 -20 -20 -20 -20 -20 -20 -20 -20 -20 -20 -20 -20 -20 -20 -20 -20 -20 -20 -20
-20 -20 -20 -20 -20 -20 -20 -20 -20 -20 -20 -20 -20 -20 -20 -20 -20 -20 -20 -20 -20 -20 -20 -20 -20 -20 -20 -20 -20 -20 -20 -20 -20 -20 -20 -20 -20 -20 -20 -20 -20 -20 -20 -20 -20 -20 -20
-20 -20 -20 -20 -20 -20 -20 -20 -20 -20 -20 -20 -20 -20 -20 -20 -20 -20 -20 -20 -20 -20 -20 -20 -20 -20 -20 -20 -20 -20 -20 -20 -20 -20 -20 -20 -20 -20 -20 -20 -20 -20 -20 -20 -20 -20 -20
-20 -20 -20 -20 -20 -20 -20 -20 -20 -20 -20 -20 -20 -20 -20 -20 -20 -20 -20 -20 -20 -20 -20 -20 -20 -20 -20 -20 -20 -20 -20 -20 -20 -20 -20 -20 -20 -20 -20 -20 -20 -20 -20 -20 -20 -20 -20
-20 -20 -20 -20 -20 -20 -20 -20 -20 -20 -20 -20 -20 -20 -20 -20 -20 -20 -20 -20 -20 -20 -20 -20 -20 -20 -20 -20 -20 -20 -20 -20 -20 -20 -20 -20 -20 -20 -20 -20 -20 -20 -20 -20 -20 -20 -20
-20 -20 -20 -20 -20 -20 -20 -20 -20 -20 -20 -20 -20 -20 -20 -20 -20 -20 -20 -20 -20 -20 -20 -20 -20 -20 -20 -20 -20 -20 -20 -20 -20 -20 -20 -20 -20 -20 -20 -20 -20 -20 -20 -20 -20 -20 -20
-20 -20 -20 -20 -20 -20 -20 -20 -20 -20 -20 -20 -20 -20 -20 -20 -20 -20 -20 -20 -20 -20 -20 -20 -20 -20 -20 -20 -20 -20 -20 -20 -20 -20 -20 -20 -20 -20 -20 -20 -20 -20 -20 -20 -20 -20 -20
-20 -20 -20 -20 -20 -20 -20 -20 -20 -20 -20 -20 -20 -20 -20 -20 -20 -20 -20 -20 -20 -20 -20 -20 -20 -20 -20 -20 -20 -20 -20 -20 -20 -20 -20 -20 -20 -20 -20 -20 -20 -20 -20 -20 -20 -20 -20
-16 -20 -20 -20 -20 -20 -20 -20 -20 -20 -20 -20 -20 -20 -20 -20 -20 -20 -20 -20 -20 -20 -20 -20 -20 -20 -20 -20 -20 -20 -20 -20 -20 -20 -20 -20 -20 -20 -20 -20 -20 -20 -20 -20 -20 -20 -20
-2 -20 -20 -20 -20 -20 -20 -20 -20 -20 -20 -20 -20 -20 -20 -20 -20 -20 -20 -20 -20 -20 -20 -20 -20 -20 -20 -20 -20 -20 -20 -20 -20 -20 -20 -20 -20 -20 -20 -20 -20 -20 -20 -20 -20 -20 -20
7 -20 -20 -20 -20 -20 -20 -20 -20 -20 -20 -20 -20 -20 -20 -20 -20 -20 -20 -20 -20 -20 -20 -20 -20 -20 -20 -20 -20 -20 -20 -20 -20 -20 -20 -20 -12 -20 -20 -20 -20 -20 -20 -20 -20 -20 -20
1 -4 -20 -20 -20 -20 -20 -20 -20 -20 -20 -20 -20 -20 -20 -20 -20 -20 -20 -20 -20 -20 -20 -20 -20 -20 -20 -20 -20 -20 -20 -20 -20 -20 -20 -20 -20 -20 -20 -20 -20 -20 -20 -20 -20 -20 -20
14 -20 -4 -20 -20 -20 -20 -20 -20 -20 -20 -20 -20 -20 -20 -20 -20 -20 -20 -20 -20 -20 -20 -20 -20 -20 -20 -20 -20 -20 -20 -20 -20 -20 -20 -20 -20 -20 -20 -20 -20 -20 -20 -20 -11 -17 -20
-20 -20 11 -20 -20 -20 -20 -20 -20 -20 -20 -20 -20 -20 -20 -20 -20 -20 -20 -20 -20 -20 -20 -20 -20 -20 -20 -20 -20 -20 -20 -20 -20 -20 -20 -20 -20 -20 -20 -20 -20 -20 -20 -20 -14 -20 -19
-20 -19 -18 -20 -20 -20 -20 -20 -20 -20 -20 -20 -20 -20 -20 -20 -20 -20 -20 -20 -20 -20 -20 -20 -20 -20 -20 -20 -20 -20 -20 -20 -20 -20 -20 -20 -20 -20 -20 -20 -20 -20 -20 -20 -20 -20 -20
-20 -20 -20 -20 -20 -20 -20 -20 -20 -20 -20 -20 -20 -20 -20 -20 -20 -20 -20 -20 -20 -20 -20 -20 -20 -20 -20 -20 -20 -20 -20 -20 -20 -20 -20 -20 -20 -20 -20 -20 -20 -20 -20 -20 -20 -20 -20
-20 -20 -20 -20 -20 -20 -20 -20 -20 -20 -20 -20 -20 -20 -20 -20 -20 -20 -20 -20 -20 -20 -20 -20 -20 -20 -20 -20 -20 -20 -20 -20 -20 -20 -20 -20 -20 -20 -20 -20 -20 -20 -20 -20 -20 -20 -20
-14 -17 -20 -20 -20 -20 -20 -20 -20 -20 -20 -20 -20 -20 -20 -20 -20 -20 -20 -20 -20 -20 -20 -20 -20 -20 -20 -20 -20 -20 -20 -20 -20 -20 -20 -20 -20 -20 -20 -20 -20 -20 -20 -20 -20 -20 -20
-19 0 -20 -20 -20 -20 -20 -20 -20 -20 -20 -20 -20 -20 -20 -20 -20 -20 -20 -20 -20 -20 -20 -20 -20 -20 -20 -20 -20 -20 -20 -20 -20 -20 -20 -20 -20 -20 -20 -20 -20 -20 -20 -20 -20 -20 -20
-20 -5 -8 -20 -20 -20 -20 -20 -20 -20 -20 -20 -20 -20 -20 -20 -20 -20 -20 -20 -20 -20 -20 -20 -20 -20 -20 -20 -20 -20 -20 -20 -20 -20 -20 -20 -20 -20 -20 -20 -20 -20 -20 -20 -20 -20 -20
-20 -20 -16 -20 -20 -20 -20 -20 -20 -20 -20 -20 -20 -20 -20 -20 -20 -20 -20 -20 -20 -20 -20 -20 -20 -20 -20 -20 -20 -20 -20 -20 -20 -20 -20 -20 -20 -20 -20 -20 -20 -20 -20 -20 -20 -20 -20
-20 -20 -20 -20 -20 -20 -20 -20 -20 -20 2 -20 -20 -20 -20 -20 -20 -20 -20 -20 -20 -20 -20 -20 -20 -20 -20 -20 -20 -20 -20 -20 -20 -20 -20 -20 -20 -20 -20 -20 -20 -20 -20 -20 -20 -20 -20
-6 -20 -20 -20 -20 -20 -20 -20 -20 -20 -20 -10 -20 -20 -20 -20 -20 -20 -20 -20 -20 -20 -20 -20 -20 -20 -20 -20 -20 -20 -20 -20 -20 -20 -20 -20 -20 -20 -20 -20 -20 -20 -20 -20 -20 -20 -20
Wind_Speed
9 8 10 11 11 12 12 12 13 13 12 12 13 12 10 10 10 7 7 7 9 10 10 10 11 6 7 9 4 7 22 17 6 7 6 6 9 3 4 2 2 3 2 5 5 6 6
9 8 9 10 10 11 11 12 12 12 12 12 12 11 10 10 9 7 5 6 8 7 7 8 11 10 9 11 9 8 10 10 6 5 5 7 3 3 4 2 2 3 3 6 4 5 5
8 8 8 9 10 10 11 11 12 13 12 12 12 11 10 10 9 7 4 5 7 6 4 5 7 5 15 7 1 8 5 5 5 3 4 3 3 7 1 1 3 2 5 5 2 3 4
7 7 8 8 9 10 10 11 12 13 12 12 12 12 10 11 10 6 3 5 6 8 6 7 6 6 6 1 3 18 15 4 6 5 2 2 5 6 5 3 5 4 3 6 4 6 3
7 6 7 7 8 9 10 12 13 13 13 12 13 13 11 11 11 4 2 6 5 9 10 3 6 6 4 5 8 6 9 6 6 5 7 4 6 4 7 4 3 7 6 8 10 3 5
6 6 6 6 8 9 10 11 12 13 14 13 13 14 12 13 8 4 7 8 12 7 6 2 4 4 6 7 6 13 14 5 6 4 5 9 5 4 4 7 2 8 6 6 14 5 5
5 5 5 6 7 9 10 11 12 13 14 13 13 14 10 14 10 7 4 4 6 9 12 8 1 4 5 8 2 17 13 6 6 9 5 5 9 6 6 1 3 5 4 12 15 10 18
5 4 4 5 7 8 10 11 12 13 14 12 12 13 9 9 13 8 6 6 1 4 7 4 2 3 2 3 6 18 11 8 7 6 7 4 4 5 6 2 7 10 12 8 12 7 17
4 3 3 4 6 8 9 11 12 13 14 13 12 12 9 2 2 8 6 3 2 1 6 2 3 3 5 4 5 13 9 4 6 5 5 4 3 8 4 4 17 11 4 6 14 23 3
4 3 2 4 6 8 9 11 12 13 13 12 11 12 12 3 6 1 3 2 1 1 5 9 7 6 7 1 5 5 5 1 7 5 4 2 5 7 5 7 12 7 3 19 18 9 4
5 4 2 3 5 7 9 11 11 12 12 11 10 10 12 7 6 3 1 1 1 3 6 6 5 4 5 9 5 14 4 7 2 5 5 4 6 5 5 11 10 8 23 17 9 1 4
6 5 2 1 4 7 9 10 11 12 12 10 8 9 3 5 4 1 0 2 3 7 5 5 4 7 5 5 5 8 9 7 1 3 2 3 3 1 4 13 5 15 11 1 3 3 3
7 6 3 0 3 6 8 10 11 12 11 8 4 9 6 1 1 1 1 3 5 9 2 8 6 6 2 6 5 8 5 11 7 9 9 8 3 3 4 4 4 12 8 6 8 6 5
9 7 5 2 3 5 8 10 11 12 12 6 4 5 5 2 1 3 3 4 11 1 2 1 4 4 4 8 3 9 4 6 6 5 2 6 8 4 8 4 4 5 5 4 6 6 10
10 8 6 3 3 5 8 10 11 12 11 4 4 3 3 4 2 2 4 9 3 3 2 6 4 5 3 2 3 7 5 1 4 2 3 5 7 3 1 2 5 6 5 1 3 2 2
11 9 7 5 2 5 7 10 11 12 11 4 3 2 2 5 3 3 8 4 2 0 1 1 3 4 4 6 7 7 3 4 3 2 2 3 8 3 3 2 3 5 1 4 3 8 9
13 11 9 7 3 4 7 9 11 12 10 2 4 4 2 1 2 8 6 3 3 1 1 1 2 1 3 3 1 2 4 5 1 3 3 4 3 7 4 1 4 2 4 3 1 2 4
14 13 11 8 5 3 6 9 12 12 9 6 3 3 2 2 7 4 3 3 2 2 2 2 4 3 4 0 2 2 3 6 6 3 2 3 3 5 7 4 4 4 6 5 1 5 6
15 14 12 10 7 4 5 7 10 11 7 3 3 1 2 2 5 2 1 2 1 2 1 2 1 2 3 2 3 3 3 3 4 3 4 3 1 7 9 4 3 2 3 4 4 3 6
16 15 14 11 9 6 4 6 9 9 4 5 4 3 5 7 2 8 5 3 3 2 2 1 2 1 1 1 4 4 3 3 3 2 3 2 3 8 9 15 2 12 8 5 3 3 4
17 16 15 13 11 8 4 4 7 7 3 5 4 1 2 1 3 4 4 3 4 4 1 1 1 3 5 1 3 4 4 5 2 4 3 4 4 6 14 18 11 9 9 4 5 8 5
18 17 15 14 13 10 6 3 5 4 4 6 5 6 3 2 2 4 1 4 6 3 5 3 4 4 6 6 8 5 3 3 6 3 4 2 5 4 10 2 5 3 3 6 7 9 13
20 18 17 16 14 11 7 3 4 2 5 4 1 2 6 2 2 4 4 6 6 6 3 3 4 3 5 11 8 10 7 6 6 2 3 1 3 5 8 8 3 4 7 6 8 6 9
21 20 18 17 15 12 8 4 1 2 4 4 3 4 5 2 2 3 5 3 5 4 5 2 4 4 3 3 4 1 2 5 4 5 7 2 1 2 7 9 5 8 4 8 10 17 5
22 21 20 18 16 14 9 5 1 6 5 4 2 4 4 3 2 2 5 3 3 3 3 3 4 2 1 4 4 4 3 1 1 2 3 5 2 4 4 2 8 2 3 7 4 11 5
24 22 21 19 17 15 12 7 6 8 11 5 2 2 4 8 5 5 4 4 4 3 3 2 2 2 3 3 4 3 3 3 5 5 5 5 3 2 3 3 5 7 6 10 4 7 2
25 24 23 21 20 18 15 12 11 8 9 5 2 1 5 6 2 4 3 5 5 3 2 3 3 2 4 2 2 1 3 2 3 3 3 3 3 3 3 5 9 3 11 8 7 10 20
27 26 25 23 22 20 18 15 12 11 13 5 2 2 4 4 1 1 4 5 3 2 5 4 4 3 3 4 3 2 2 3 2 4 4 3 2 3 1 3 8 1 3 3 7 12 14
29 28 27 25 24 22 19 17 15 14 10 6 4 1 2 7 4 1 2 1 1 5 7 2 3 3 4 5 1 3 3 1 2 4 2 3 7 4 8 7 1 2 4 5 5 10 9
Wind_Direction
86 72 66 57 48 44 41 36 31 28 28 28 27 29 32 31 31 41 41 42 41 36 33 31 39 45 58 44 93 292 335 334 351 353 26 30 40 51 71 52 19 57 338 301 295 283 251
90 74 66 58 47 43 38 34 29 27 26 26 24 24 23 25 25 28 51 40 26 22 21 52 43 59 70 72 254 311 323 330 0 26 19 36 62 85 95 58 70 309 278 278 288 281 274
89 76 66 58 48 41 35 31 27 25 25 24 21 18 15 14 13 17 49 32 26 36 31 75 60 78 62 123 198 306 324 301 328 9 48 31 35 73 70 24 331 330 343 324 246 283 292
95 77 64 55 48 40 33 29 25 24 22 21 17 11 9 7 6 11 43 33 34 45 80 75 70 69 97 327 331 4 347 347 3 18 53 349 86 91 46 330 26 25 36 340 298 314 296
95 78 60 50 43 37 32 28 25 22 19 16 12 8 5 3 360 23 62 48 86 56 52 14 38 86 28 335 360 338 16 331 323 5 20 55 62 69 1 41 39 26 284 293 309 250 287
100 83 60 48 39 32 30 26 23 20 18 13 8 3 1 4 17 39 72 82 62 33 4 36 83 55 25 323 322 346 1 3 28 344 17 31 50 64 28 33 20 315 313 277 294 295 335
113 89 64 46 34 30 26 23 21 18 16 12 6 1 3 21 43 42 28 25 20 2 23 85 194 96 299 307 39 357 347 358 18 61 19 7 54 21 318 326 199 253 248 278 280 282 326
121 97 68 42 32 25 21 19 19 17 13 11 8 6 16 48 52 48 66 75 135 167 88 26 65 43 4 345 357 357 5 49 29 21 333 29 68 312 287 236 336 317 299 289 285 296 317
132 105 70 40 26 20 17 16 16 16 13 9 9 11 355 74 61 45 79 96 303 292 89 24 47 30 331 14 44 344 16 8 41 28 8 88 8 317 346 331 345 328 237 289 293 325 283
152 117 69 30 23 14 13 14 15 13 13 12 9 15 14 155 52 220 55 297 307 122 87 338 350 6 354 46 61 350 7 42 23 9 2 43 346 350 337 351 354 307 277 302 304 327 292
170 145 102 19 9 10 7 9 10 10 11 12 10 21 40 49 144 64 176 253 103 60 47 348 348 311 349 62 317 359 354 24 22 339 48 289 357 350 0 339 336 274 302 304 291 200 12
180 163 147 30 359 2 4 3 3 4 6 9 14 24 25 22 45 50 130 88 58 46 310 350 360 356 15 32 15 323 18 13 12 353 60 254 294 265 318 309 324 322 306 352 78 102 6
186 175 179 229 351 356 358 358 358 358 358 2 31 55 46 45 75 117 92 52 37 82 27 342 336 2 32 336 351 12 15 22 43 10 15 331 333 341 350 330 327 1 352 348 356 5 253
191 185 192 231 332 350 352 354 355 354 355 3 87 92 54 38 354 113 61 54 63 149 338 14 349 320 44 357 32 351 19 24 33 60 14 24 336 16 350 137 242 347 87 117 302 308 305
200 194 198 221 312 341 349 349 351 354 358 26 120 22 47 343 130 75 84 49 184 226 256 341 313 18 353 12 5 12 48 270 245 48 84 10 273 318 321 75 108 321 35 209 267 261 309
203 201 205 217 272 328 342 346 347 351 359 20 90 64 336 322 126 78 70 118 176 334 117 52 84 53 323 330 7 35 14 242 297 193 150 244 297 247 308 67 62 105 273 12 7 330 313
202 201 205 214 234 309 334 341 345 349 356 92 55 60 262 15 96 50 86 177 149 142 130 71 169 318 221 300 347 322 266 274 206 10 110 144 141 293 351 57 188 5 17 27 206 260 291
201 203 205 210 221 281 325 340 347 349 359 60 97 47 319 102 50 48 81 134 146 159 88 93 93 134 188 238 304 298 257 214 149 166 317 220 162 282 258 293 162 136 179 138 126 289 254
207 204 208 205 212 245 310 337 348 353 32 115 85 285 332 76 90 73 162 76 70 134 145 136 158 192 180 216 346 226 257 258 184 318 190 214 336 319 348 360 36 169 250 188 211 228 233
204 210 212 205 205 229 287 329 346 355 56 83 81 35 352 45 48 124 139 167 158 36 111 131 156 123 108 286 209 282 280 282 314 231 275 116 150 172 222 254 170 299 283 233 217 235 258
197 205 209 201 205 217 245 312 341 2 57 92 27 173 161 355 8 96 93 149 146 195 37 133 227 213 152 320 278 236 244 303 317 352 41 97 249 211 249 262 279 255 264 167 176 236 246
195 197 204 202 204 212 225 278 333 2 94 80 123 130 9 108 84 95 257 222 175 188 142 222 203 176 167 190 196 251 219 218 257 333 5 66 271 346 286 135 136 266 185 202 232 253 260
194 196 199 201 204 209 215 251 334 45 69 96 145 42 105 309 88 93 217 184 207 147 218 209 181 141 221 242 230 237 222 221 232 336 313 25 322 344 272 317 65 12 219 225 251 241 252
193 196 195 197 201 205 210 229 345 74 119 123 170 113 92 193 139 204 167 151 170 204 175 195 154 154 239 316 274 193 188 237 236 254 212 271 340 198 286 330 17 241 225 227 243 292 228
193 194 194 193 195 199 201 204 172 146 121 94 136 117 119 132 157 149 158 131 81 353 195 225 220 218 309 17 14 357 338 311 77 103 207 190 83 311 318 241 289 5 286 309 19 308 203
192 192 192 190 188 190 192 176 135 136 125 90 71 109 104 120 232 113 144 164 167 200 342 238 58 335 54 72 50 55 295 251 315 335 75 88 74 133 341 332 276 239 286 316 119 296 282
191 189 190 189 184 183 187 176 161 148 129 109 92 57 93 105 256 115 171 169 135 102 163 292 284 52 39 56 63 120 284 167 303 287 297 344 17 199 276 276 287 276 305 305 42 268 330
188 189 187 187 183 181 184 179 167 149 132 94 125 5 115 110 164 182 170 140 125 141 150 208 62 342 52 76 126 207 177 249 339 248 195 171 117 269 80 337 318 354 322 66 246 304 312
187 187 185 185 181 180 180 178 170 161 131 113 98 13 68 80 152 101 78 8 278 177 128 10 181 162 174 93 81 113 214 120 146 287 79 326 186 203 183 231 209 233 216 252 272 295 300